FENGYUN 1C DEB, 30366

Orbit data source: Space-Track

FENGYUN 1C DEB, 30366 is space debris in SSO originally from a launch on Mon, 10 May 1999 UTC launched from the Taiyaun Space Center, China (TSC). Fengyun 1C debris stems from the Chinese weather satellite Fengyun-1C, which was intentionally destroyed by a Chinese anti-satellite missile in 2007. This event dramatically increased the amount of space debris, with thousands of trackable fragments posing hazards to satellites and human spaceflight. The Fengyun 1C debris cloud has become a focal point in discussions about space sustainability and the need for international regulations to prevent the creation of new debris.

Loading next visibility...
Identifier
30366, 1999-025ACD
Orbit
SSO
Country
Flag of CNCN / PRC
Related business
Manufacturer
Unknown
Mission
Spacecraft
Bus & Motor
Unknown
Mass
Unknown
Launch date (UTC)
1999-05-10 (27 years ago)
Launch vehicle
Unknown
Launch site
Taiyaun Space Center, China (TSC)
Object type
Payload
Rocket body
Debris
Shape & HBR
Unknown shape, 0.1 m
Radar Cross Section
Medium (>0.1 m² and <1 m²)

Expand to show TLE details & history
Last TLE update: 1 day ago

TLE from 1 day ago
0 FENGYUN 1C DEB
1 30366U 99025ACD 26208.28680139  .00000991  00000-0  36365-3 0  9993
2 30366  98.9269 137.9476 0061129 277.0614 235.4676 14.34110447 15701
Epoch: 2026-07-27T06:52Z
TLE epoch observation values (Epoch: 2026-07-27T06:52:59.640Z)
Latitude
27.71859°
Longitude
-85.56447°
Altitude
806.411 km
Speed
7.44 km/s
True Right ascension
21h 30m 37s
True Declination
27° 34' 42"
Sunlit
Object was in full shadow at epoch
Visualization orbit readout
Latitude
Unknown
Longitude
Unknown
Altitude
Unknown
Speed
Unknown
Apparent Right ascension
Unknown
Apparent Declination
Unknown
Sunlit
N/A
Visualization observer readout
Local Sidereal Time
02:43:29
Azimuth
Unknown
Elevation
Unknown
Doppler factor
Unknown
Orbital elements
Apogee altitude
818.902 km
Perigee altitude
731.447 km
Semi-major axis
7,153.311 km
Eccentricity
0.00611
Inclination
98.9269°
RAAN
137.9476°
Arg. of periapsis
277.0614°
True anomaly
234.89303°
Mean anomaly
235.4676°
Eccentric anomaly
235.18007°
Mean motion
3.58742 °/min
Orbital period
100.35 mins
BSTAR
0.00036365
Loading maneuver chart data...
Computing Atmospheric mass density...

Documentation

Showing up to 5 results
|